[[{"header":{"parameterUnit":"m.s-1","parameterCategory":1,"la1":30.2991,"la2":30.254,"lo1":-89.0895,"lo2":-89.0444,"dy":0.0017,"dx":0.0017,"nx":28,"ny":28,"refTime":"2023-03-29T21:00:00:Z","depth":0,"parameterNumber":2,"parameterNumberName":"U-component_of_WINDS"},"data":[0,0,0,0,0,0,0,0,0,0,0,0,0,0,0,0,0,0,0,0,0,0,0,0,0,0,0,0,0,0,0,0,0,0,0,0,0,0,0,0,0,0,0,0,0,0,0,0,0,0,0,0,0,0,0,0,0,0,-2.921,-2.9212,0,-2.9399,-2.9401,-2.9403,-2.9408,-2.9405,-2.9403,-2.9401,-2.9596,-2.9603,-2.961,0,0,0,0,0,0,0,0,0,0,0,0,0,-2.8855,-2.8861,-2.921,-2.9212,-2.9214,-2.9398,-2.9401,-2.9403,-2.9408,-2.9405,-2.9402,-2.94,-2.9593,-2.9602,-2.9611,0,0,0,0,0,0,0,0,0,0,0,0,0,-2.9023,-2.8863,-2.9209,-2.9239,-2.9243,-2.9398,-2.9401,-2.9404,-2.9409,-2.9405,-2.9402,-2.9398,-2.959,-2.9601,-2.9612,-2.975,0,0,-2.9646,-2.965,0,0,0,0,0,0,0,0,-2.9013,-2.9036,-2.9232,-2.9237,-2.9242,-2.9376,-2.9347,-2.952,-2.9409,-2.9346,-2.9401,-2.9397,-2.9525,-2.9542,-2.9585,-2.9759,-2.9767,-2.9647,-2.9653,-2.9658,-2.9661,0,0,0,0,0,0,0,-2.9002,-2.9028,-2.9284,-2.9235,-2.9241,-2.9243,-2.9263,-2.938,-2.9453,-2.9351,-2.9352,-2.9374,-2.9528,-2.9574,-2.9589,-2.977,-2.9646,-2.9656,-2.9663,-2.9667,-3.0068,-3.0071,0,0,0,0,0,0,-2.8984,-2.9018,-2.9278,-2.929,-2.9117,-2.9252,-2.9275,-2.9337,-2.9452,-2.9466,-2.9377,-2.9374,-2.9557,-2.9576,-2.9596,-2.9765,-2.9658,-2.9668,-2.9675,-3.0064,-3.0068,-3.0073,0,0,0,0,0,0,-2.8976,-2.9007,-2.9271,-2.9154,-2.9188,-2.9262,-2.9332,-2.9342,-2.9389,-2.9471,-2.9484,-2.9411,-2.9555,-2.9581,-2.9712,-2.9772,-2.9673,-2.9683,-3.0059,-3.0065,-3.0071,-3.0104,0,0,0,0,0,0,-2.8966,-2.9004,-2.9057,-2.9155,-2.9194,-2.9383,-2.9335,-2.9348,-2.9407,-2.9405,-2.9507,-2.952,-2.9554,-2.9695,-2.9723,-2.9785,-2.9692,-3.0054,-3.0062,-3.0069,-3.0098,-3.011,-3.0121,0,0,0,0,0,-2.8953,-2.9059,-2.906,-2.9091,-2.9262,-2.9386,-2.9408,-2.9445,-2.9412,-2.9466,-2.9519,-2.9517,-2.9761,-2.9708,-2.9739,-2.9806,-3.005,-3.0059,-3.0068,-3.0093,-3.0108,-3.0121,0,0,0,0,0,0,-2.8966,-2.9073,-2.9074,-2.9215,-2.9291,-2.9387,-2.9455,-2.946,-2.9548,-2.9542,-2.9584,-2.9607,-2.9737,-2.9785,-2.9725,-2.9946,-2.9902,-2.9917,-2.991,-2.9925,-2.9936,-2.9922,-2.9701,0,0,0,0,0,-2.8986,-2.9077,-2.9165,-2.9281,-2.9319,-2.9381,-2.9436,-2.9458,-2.9539,-2.9572,-2.9634,-2.9713,-2.9808,-2.9869,-2.9961,-3.0105,-3.0127,-3.0167,-3.0178,-3.0187,-3.02,-3.028,-3.0298,-3.0102,-3.0102,-3.0102,0,0,-2.9026,-2.9096,-2.9151,-2.9286,-2.9347,-2.9441,-2.9408,-2.9509,-2.958,-2.9587,-2.9714,-2.9763,-2.9854,-2.9992,-3.0056,-3.0036,-3.0259,-3.0199,-3.0206,-3.0214,-3.0291,-3.031,-3.0326,-3.0109,-3.0107,-3.0106,0,0,-2.9148,-2.921,-2.9313,-2.9376,-2.9469,-2.951,-2.9535,-2.963,-2.9662,-2.979,-2.9798,-2.9883,-3.0045,-3.0109,-3.0163,-3.031,-3.0311,-3.0339,-3.04,-3.0477,-3.0493,-3.0506,-3.0559,-3.0577,-3.0352,-3.0352,-3.0352,0,-2.9187,-2.9329,-2.9366,-2.9467,-2.9526,-2.9537,-2.9642,-2.9701,-2.982,-2.9861,-2.9837,-3.004,-3.0103,-3.0256,-3.0291,-3.0335,-3.0365,-3.0327,-3.0487,-3.0502,-3.0515,-3.0565,-3.0585,-3.0355,-3.0354,-3.0354,-3.0354,0,-2.9372,-2.947,-2.9542,-2.9656,-2.9724,-2.9826,-2.9879,-2.9943,-2.9959,-3.0002,-3.0133,-3.0208,-3.0315,-3.0353,-3.037,-3.0509,-3.0494,-3.0478,-3.0434,-3.0536,-3.0584,-3.0603,-3.0359,-3.0358,-3.0357,-3.0356,0,0,-2.9507,-2.964,-2.9666,-2.9718,-2.9822,-2.9899,-3.0002,-3.0106,-3.016,-3.0242,-3.033,-3.0467,-3.0454,-3.0515,-3.0539,-3.0607,-3.0719,-3.0584,-3.0586,-3.0605,-3.0876,-3.0887,-3.0908,-3.072,-3.0724,-3.0727,-3.0868,0,-2.964,-2.9823,-2.9859,-3.0018,-3.011,-3.0121,-3.0212,-3.0286,-3.0329,-3.0413,-3.0461,-3.0557,-3.0532,-3.0569,-3.0637,-3.0691,-3.0773,-3.0681,-3.0802,-3.0806,-3.0778,-3.0933,-3.0945,-3.1074,-3.0887,-3.0891,-3.0893,0,-2.9819,-2.9904,-3.0072,-3.0165,-3.0204,-3.0284,-3.0383,-3.0463,-3.0548,-3.0574,-3.0643,-3.066,-3.0769,-3.072,-3.087,-3.0807,-3.0859,-3.0893,-3.0899,-3.0911,-3.0855,-3.0949,-3.1117,-3.1136,-3.0923,-3.092,-3.0918,0,-2.9899,-3.0057,-3.0178,-3.0222,-3.0333,-3.0389,-3.0438,-3.0519,-3.0579,-3.0665,-3.0705,-3.0803,-3.0857,-3.0933,-3.0976,-3.0937,-3.1123,-3.1078,-3.1148,-3.1147,-3.1186,-3.1183,-3.1364,-3.1221,-3.1221,-3.122,-3.122,0,-3.0043,-3.0146,-3.0215,-3.029,-3.0405,-3.0446,-3.0559,-3.0607,-3.0679,-3.0764,-3.0781,-3.0859,-3.0912,-3.0999,-3.1034,-3.1153,-3.1177,-3.1202,-3.121,-3.12,-3.1197,-3.1234,-3.1226,-3.1226,-3.1224,-3.1223,-3.1222,0,-3.0152,-3.0203,-3.0336,-3.043,-3.0456,-3.0536,-3.0617,-3.069,-3.0733,-3.084,-3.0867,-3.0936,-3.1039,-3.109,-3.1218,-3.1241,-3.1375,-3.1378,-3.1346,-3.1349,-3.1416,-3.1409,-3.1627,-3.1657,-3.1495,-3.1496,-3.1497,0,-3.0241,-3.0319,-3.0422,-3.0479,-3.0529,-3.0621,-3.0683,-3.0727,-3.079,-3.0893,-3.0953,-3.1057,-3.1142,-3.1306,-3.1367,-3.1465,-3.147,-3.154,-3.1485,-3.1473,-3.147,-3.1465,-3.1473,-3.1549,-3.1551,-3.1552,-3.1553,0,-3.0391,-3.0413,-3.05,-3.0597,-3.067,-3.0748,-3.0826,-3.0872,-3.0929,-3.0999,-3.1104,-3.117,-3.1301,-3.1403,-3.1506,-3.1557,-3.1565,-3.157,-3.1591,-3.1581,-3.156,-3.1572,-3.1372,-3.1564,-3.1563,-3.1562,-3.1562,-3.1561,-3.0493,-3.0563,-3.0646,-3.0743,-3.0806,-3.0878,-3.095,-3.1003,-3.1091,-3.12,-3.1221,-3.1333,-3.1416,-3.1554,-3.1609,-3.1697,-3.1682,-3.1713,-3.172,-3.1727,-3.173,-3.1546,-3.1716,-3.1716,-3.1715,-3.1715,-3.1715,0,-3.0644,-3.0697,-3.0786,-3.0894,-3.097,-3.0971,-3.1056,-3.1121,-3.1218,-3.1295,-3.1378,-3.1498,-3.1598,-3.1668,-3.1769,-3.1826,-3.1833,-3.1852,-3.1847,-3.1859,-3.1738,-3.1709,-3.1845,-3.1845,-3.1845,-3.1845,-3.1845,-3.1845,-3.0731,-3.085,-3.0881,-3.1032,-3.1085,-3.1194,-3.1243,-3.1309,-3.1371,-3.1504,-3.1587,-3.1632,-3.1706,-3.1813,-3.1904,-3.1923,-3.1959,-3.1978,-3.1996,-3.1881,-3.1868,-3.1854,-3.1827,-3.1986,-3.1986,-3.2109,-3.211,-3.2111]},{"header":{"parameterUnit":"m.s-1","parameterCategory":1,"la1":30.2991,"la2":30.254,"lo1":-89.0895,"lo2":-89.0444,"dy":0.0017,"dx":0.0017,"nx":28,"ny":28,"refTime":"2023-03-29T21:00:00:Z","depth":0,"parameterNumber":3,"parameterNumberName":"V-component_of_WINDS"},"data":[0,0,0,0,0,0,0,0,0,0,0,0,0,0,0,0,0,0,0,0,0,0,0,0,0,0,0,0,0,0,0,0,0,0,0,0,0,0,0,0,0,0,0,0,0,0,0,0,0,0,0,0,0,0,0,0,0,0,-0.8022,-0.8021,0,-0.7971,-0.797,-0.797,-0.7958,-0.7959,-0.7959,-0.7959,-0.7903,-0.7901,-0.7899,0,0,0,0,0,0,0,0,0,0,0,0,0,-0.8105,-0.8103,-0.8022,-0.8021,-0.8021,-0.7971,-0.797,-0.797,-0.7958,-0.7959,-0.7959,-0.7959,-0.7903,-0.7901,-0.7899,0,0,0,0,0,0,0,0,0,0,0,0,0,-0.8062,-0.8103,-0.8022,-0.8009,-0.8007,-0.7971,-0.797,-0.7969,-0.7958,-0.7959,-0.7959,-0.796,-0.7904,-0.7901,-0.7898,-0.787,0,0,-0.789,-0.7889,0,0,0,0,0,0,0,0,-0.8065,-0.8059,-0.8012,-0.801,-0.8008,-0.7972,-0.7979,-0.7936,-0.7958,-0.7977,-0.7959,-0.796,-0.7925,-0.792,-0.7909,-0.7867,-0.7865,-0.789,-0.7888,-0.7887,-0.7886,0,0,0,0,0,0,0,-0.8068,-0.8062,-0.8002,-0.8011,-0.8009,-0.8004,-0.7999,-0.797,-0.7948,-0.7975,-0.7974,-0.7968,-0.7924,-0.7912,-0.7908,-0.7864,-0.789,-0.7887,-0.7886,-0.7884,-0.7794,-0.7793,0,0,0,0,0,0,-0.8074,-0.8064,-0.8003,-0.8,-0.8039,-0.8002,-0.7996,-0.7983,-0.7948,-0.7944,-0.7968,-0.7968,-0.7917,-0.7911,-0.7906,-0.7869,-0.7887,-0.7884,-0.7883,-0.7795,-0.7794,-0.7793,0,0,0,0,0,0,-0.8075,-0.8068,-0.8005,-0.8032,-0.8023,-0.8,-0.7985,-0.7981,-0.797,-0.7943,-0.7939,-0.796,-0.7917,-0.791,-0.7879,-0.7867,-0.7883,-0.788,-0.7796,-0.7795,-0.7793,-0.7796,0,0,0,0,0,0,-0.8078,-0.8069,-0.8059,-0.8032,-0.8022,-0.7981,-0.7984,-0.798,-0.7965,-0.7965,-0.7935,-0.793,-0.7917,-0.7883,-0.7876,-0.7863,-0.7878,-0.7797,-0.7795,-0.7794,-0.7797,-0.7795,-0.7793,0,0,0,0,0,-0.8081,-0.8061,-0.8059,-0.8052,-0.801,-0.798,-0.7974,-0.796,-0.7965,-0.7953,-0.7936,-0.7931,-0.787,-0.788,-0.7872,-0.7858,-0.7797,-0.7796,-0.7794,-0.7797,-0.7795,-0.7794,0,0,0,0,0,0,-0.8087,-0.8058,-0.8054,-0.8026,-0.8006,-0.7978,-0.7964,-0.7959,-0.7936,-0.7936,-0.7919,-0.7912,-0.7882,-0.7867,-0.7879,-0.7828,-0.7833,-0.783,-0.7839,-0.7836,-0.7835,-0.7838,-0.7876,0,0,0,0,0,-0.8085,-0.8065,-0.804,-0.8017,-0.8007,-0.7987,-0.7974,-0.7965,-0.7943,-0.7934,-0.7914,-0.7892,-0.7867,-0.7851,-0.7827,-0.7795,-0.7787,-0.7781,-0.778,-0.7778,-0.7775,-0.7755,-0.7752,-0.7788,-0.7788,-0.7788,0,0,-0.808,-0.8062,-0.805,-0.8018,-0.8001,-0.7979,-0.798,-0.7957,-0.794,-0.793,-0.7899,-0.7884,-0.7858,-0.7826,-0.781,-0.7812,-0.7764,-0.7776,-0.7776,-0.7773,-0.7753,-0.775,-0.7747,-0.7787,-0.7787,-0.7787,0,0,-0.8061,-0.8046,-0.8024,-0.8008,-0.7983,-0.797,-0.7965,-0.7938,-0.7928,-0.7898,-0.7889,-0.7868,-0.7826,-0.7807,-0.7792,-0.7764,-0.7758,-0.7757,-0.7748,-0.7729,-0.7726,-0.7723,-0.7712,-0.7708,-0.7754,-0.7754,-0.7754,0,-0.8058,-0.8026,-0.8014,-0.7991,-0.7976,-0.7967,-0.7944,-0.7928,-0.7896,-0.7885,-0.7888,-0.7835,-0.7816,-0.7779,-0.7772,-0.7761,-0.7753,-0.776,-0.7728,-0.7725,-0.7722,-0.7711,-0.7707,-0.7754,-0.7754,-0.7754,-0.7754,0,-0.8023,-0.8001,-0.7986,-0.7957,-0.794,-0.7917,-0.79,-0.7884,-0.7876,-0.7862,-0.783,-0.7808,-0.7778,-0.7769,-0.7761,-0.773,-0.7732,-0.7731,-0.7736,-0.7719,-0.7708,-0.7703,-0.7754,-0.7754,-0.7754,-0.7754,0,0,-0.8005,-0.7969,-0.7964,-0.795,-0.7922,-0.7903,-0.7879,-0.7852,-0.7838,-0.7816,-0.7794,-0.7759,-0.7758,-0.7741,-0.773,-0.7714,-0.7691,-0.7715,-0.7714,-0.771,-0.7653,-0.7652,-0.7648,-0.7687,-0.7686,-0.7686,-0.7655,0,-0.7981,-0.7939,-0.7927,-0.7891,-0.7869,-0.7861,-0.7839,-0.7819,-0.7805,-0.7783,-0.7767,-0.7741,-0.7743,-0.7733,-0.7716,-0.7698,-0.7679,-0.77,-0.7664,-0.7663,-0.767,-0.7642,-0.7642,-0.7614,-0.7651,-0.765,-0.7649,0,-0.7947,-0.7926,-0.7888,-0.7862,-0.7852,-0.7833,-0.7807,-0.7787,-0.7762,-0.7753,-0.7734,-0.7724,-0.7697,-0.7704,-0.7665,-0.7679,-0.7664,-0.7652,-0.7651,-0.7646,-0.7654,-0.7635,-0.7605,-0.76,-0.7643,-0.7643,-0.7644,0,-0.7936,-0.7898,-0.787,-0.7858,-0.7827,-0.7814,-0.78,-0.7777,-0.776,-0.7736,-0.7725,-0.7698,-0.7683,-0.7661,-0.7644,-0.7651,-0.7605,-0.7611,-0.7595,-0.7595,-0.7584,-0.7585,-0.755,-0.7577,-0.7577,-0.7578,-0.7578,0,-0.7909,-0.7886,-0.7864,-0.7847,-0.782,-0.7806,-0.7779,-0.7764,-0.7743,-0.7721,-0.7712,-0.7691,-0.7671,-0.7647,-0.7633,-0.7602,-0.7595,-0.7585,-0.7582,-0.7585,-0.7586,-0.7574,-0.7575,-0.7576,-0.7577,-0.7577,-0.7577,0,-0.7892,-0.7877,-0.7846,-0.7819,-0.7812,-0.7793,-0.7769,-0.7751,-0.7737,-0.7709,-0.7702,-0.7679,-0.765,-0.7631,-0.7594,-0.7585,-0.755,-0.7548,-0.7558,-0.7556,-0.754,-0.7541,-0.7494,-0.7487,-0.7521,-0.7521,-0.7521,0,-0.7875,-0.7858,-0.7829,-0.7815,-0.7801,-0.7778,-0.7761,-0.7746,-0.7729,-0.7699,-0.7684,-0.7655,-0.7631,-0.7585,-0.7564,-0.7535,-0.7531,-0.7517,-0.7526,-0.753,-0.7529,-0.7529,-0.7526,-0.7514,-0.7514,-0.7514,-0.7514,0,-0.7847,-0.784,-0.7818,-0.7793,-0.7774,-0.7753,-0.7732,-0.772,-0.77,-0.7681,-0.7653,-0.7634,-0.7597,-0.7567,-0.7536,-0.752,-0.7512,-0.7511,-0.7505,-0.7508,-0.7514,-0.7509,-0.7552,-0.7512,-0.7512,-0.7512,-0.7512,-0.7512,-0.7828,-0.7811,-0.7789,-0.7764,-0.7747,-0.7727,-0.7708,-0.7692,-0.7668,-0.7638,-0.7629,-0.7599,-0.7573,-0.7531,-0.7514,-0.7489,-0.749,-0.7482,-0.748,-0.7478,-0.7477,-0.752,-0.7483,-0.7483,-0.7483,-0.7483,-0.7483,0,-0.7798,-0.7783,-0.776,-0.7731,-0.7711,-0.7708,-0.7685,-0.7667,-0.7641,-0.7619,-0.7595,-0.7561,-0.7532,-0.7509,-0.7479,-0.7463,-0.7458,-0.7455,-0.7455,-0.7451,-0.7478,-0.7485,-0.7459,-0.7459,-0.7459,-0.7459,-0.7459,-0.7459,-0.778,-0.7751,-0.7741,-0.7702,-0.7687,-0.7658,-0.7645,-0.7625,-0.7607,-0.757,-0.7547,-0.7533,-0.7509,-0.7477,-0.7449,-0.7443,-0.7432,-0.7429,-0.7421,-0.7447,-0.7449,-0.7452,-0.7458,-0.7427,-0.7427,-0.7396,-0.7396,-0.7395]}]]